Location: G�kdere
(37.0328°N, 30.9000°E)
Time: 22:49:57
(UTC+00:00)

SJ-6B - Pass Details

Date: 03 March 2021
Orbit: 509 x 581 km, 97.6° (Epoch: 19 April)

Event Time Altitude Azimuth Distance (km) Brightness Sun altitude
Exits shadow 17:46:19 45° 10° (N) 787 3.5 -23.4°
Drops below altitude 10° 17:49:17 10° 354° (N) 1,882 5.7 -24.0°
Sets 17:51:25 0° 351° (N) 2,774 6.6 -24.4°
